Weather History for La Junta, CO

Change the Weather History Date:

Sunday, November 17, 2013

  Actual Average Record
Temperature  
Mean Temperature 44 °F 40 °F  
Max Temperature 57 °F 55 °F 80 °F (1981)
Min Temperature 30 °F 25 °F 2 °F (2014)
Degree Days  
Heating Degree Days 21 25  
Month to date heating degree days 309 355  
Since 1 July heating degree days 681 777  
Cooling Degree Days 0 0  
Month to date cooling degree days 0 0  
Year to date cooling degree days 1663 1226  
Moisture  
Dew Point 21 °F    
Average Humidity 44    
Maximum Humidity 64    
Minimum Humidity 23    
Precipitation  
Precipitation 0.00 in 0.01 in 0.40 in (1948)
Month to date precipitation 0.04 0.25  
Year to date precipitation 5.02 11.07  
Sea Level Pressure  
Sea Level Pressure 29.84 in    
Wind  
Wind Speed 8 mph (East)    
Max Wind Speed 25 mph    
Max Gust Speed 30 mph    
Visibility 10 miles    
Events      
T = Trace of Precipitation, MM = Missing Value Source: NWS Daily Summary

Daily Weather History Graph

Daily Weather History Graph

Search for Another Location

Airport:

Trip Planner

Search our weather history database for the weather conditions in past years. The results will help you decide how hot, cold, wet, or windy it might be!

Date:

Astronomy

Nov. 17, 2013 Rise Set
Actual Time 6:37 AM MST 4:40 PM MST
Civil Twilight 6:09 AM MST 5:08 PM MST
Nautical Twilight 5:37 AM MST 5:40 PM MST
Astronomical Twilight 5:05 AM MST 6:11 PM MST
Moon 4:59 PM MST (11/17) 6:33 AM MST (11/17)
Length of Visible Light 10h 59m
Length of Day
10h 03m
Full, 100% of the Moon is Illuminated
Nov 17
Full
Nov 25
Last Quarter
Dec 2
New
Dec 9
First Quarter
Dec 17
Full

Hourly Weather History & Observations

Time (MST) Temp. Windchill Dew Point Humidity Pressure Visibility Wind Dir Wind Speed Gust Speed Precip Events Conditions
12:53 AM 45.0 °F 39.7 °F 27.0 °F 49% 29.47 in 10.0 mi North 10.4 mph - N/A   Mostly Cloudy
1:53 AM 39.9 °F 37.8 °F 25.0 °F 55% 29.51 in 10.0 mi NNW 3.5 mph - N/A   Clear
2:53 AM 39.0 °F 35.7 °F 25.0 °F 57% 29.55 in 10.0 mi SSW 4.6 mph - N/A   Clear
3:53 AM 39.0 °F - 26.1 °F 60% 29.58 in 10.0 mi Calm Calm - N/A   Partly Cloudy
4:53 AM 39.9 °F - 28.0 °F 63% 29.60 in 10.0 mi Calm Calm - N/A   Partly Cloudy
5:53 AM 36.0 °F 30.3 °F 25.0 °F 64% 29.66 in 10.0 mi SSW 6.9 mph - N/A   Clear
6:53 AM 39.0 °F 35.7 °F 26.1 °F 60% 29.70 in 10.0 mi WSW 4.6 mph - N/A   Clear
7:53 AM 39.0 °F 34.0 °F 25.0 °F 57% 29.76 in 10.0 mi North 6.9 mph - N/A   Clear
8:53 AM 46.0 °F 40.6 °F 28.0 °F 50% 29.80 in 10.0 mi North 11.5 mph - N/A   Clear
9:53 AM 52.0 °F - 26.1 °F 37% 29.82 in 10.0 mi ENE 4.6 mph - N/A   Clear
10:53 AM 54.0 °F - 21.0 °F 28% 29.86 in 10.0 mi ENE 13.8 mph - N/A   Clear
11:53 AM 54.0 °F - 21.0 °F 28% 29.85 in 10.0 mi East 12.7 mph - N/A   Clear
12:53 PM 55.9 °F - 19.0 °F 24% 29.85 in 10.0 mi East 8.1 mph - N/A   Clear
1:53 PM 57.0 °F - 19.9 °F 24% 29.86 in 10.0 mi East 11.5 mph - N/A   Clear
2:53 PM 57.0 °F - 21.0 °F 25% 29.88 in 10.0 mi East 13.8 mph - N/A   Clear
3:53 PM 55.9 °F - 19.9 °F 25% 29.90 in 10.0 mi ESE 16.1 mph - N/A   Clear
4:53 PM 50.0 °F - 18.0 °F 28% 29.94 in 10.0 mi East 11.5 mph - N/A   Clear
5:53 PM 46.9 °F - 17.1 °F 30% 30.00 in 10.0 mi East 10.4 mph - N/A   Clear
6:53 PM 41.0 °F 35.8 °F 17.1 °F 38% 30.04 in 10.0 mi East 8.1 mph - N/A   Clear
7:53 PM 39.0 °F 34.8 °F 16.0 °F 39% 30.08 in 10.0 mi East 5.8 mph - N/A   Clear
8:53 PM 37.9 °F 31.5 °F 14.0 °F 38% 30.10 in 10.0 mi East 9.2 mph - N/A   Clear
9:53 PM 36.0 °F 33.3 °F 12.9 °F 39% 30.11 in 10.0 mi ESE 3.5 mph - N/A   Clear
10:53 PM 36.0 °F 32.1 °F 12.0 °F 37% 30.11 in 10.0 mi SSE 4.6 mph - N/A   Clear
11:53 PM 32.0 °F - 10.9 °F 42% 30.13 in 10.0 mi Calm Calm - N/A   Clear